N447BF MDJB-MDJB

Flight info

Callsign N447BF
Flight time 0h 7m
Altitude 4000
Route VFR
Aircraft B407/L-SFG/C

Departure

Time 2026-05-06 02:09
Airport La Isabela International Airport (MDJB)

Arrival

Time 2026-05-06 02:16
Airport La Isabela International Airport (MDJB)
Time Latitude Longitude Altitude Speed Heading
2026-05-06 01:48 18.41618 -68.93332 76 ft 0 kts 285°
2026-05-06 01:52 18.41620 -68.93340 83 ft 3 kts 335°
2026-05-06 01:52 18.41632 -68.93337 85 ft 10 kts 29°
2026-05-06 01:53 18.41867 -68.93278 194 ft 55 kts 359°
2026-05-06 01:53 18.42071 -68.93656 417 ft 78 kts 269°
2026-05-06 01:53 18.41955 -68.94381 619 ft 118 kts 257°
2026-05-06 01:53 18.41733 -68.95293 775 ft 136 kts 252°
2026-05-06 01:54 18.41430 -68.96214 954 ft 121 kts 245°
2026-05-06 01:54 18.41056 -68.97042 1173 ft 127 kts 241°
2026-05-06 01:54 18.40681 -68.97898 1414 ft 131 kts 244°
2026-05-06 01:54 18.40368 -68.98814 1651 ft 135 kts 252°
2026-05-06 01:55 18.40149 -68.99797 1808 ft 142 kts 253°
2026-05-06 01:55 18.39974 -69.00852 1822 ft 146 kts 262°
2026-05-06 01:55 18.40021 -69.01911 1823 ft 148 kts 272°
2026-05-06 01:55 18.40138 -69.02995 1811 ft 150 kts 274°
2026-05-06 01:56 18.40272 -69.04083 1805 ft 151 kts 275°
2026-05-06 01:56 18.40418 -69.05179 1804 ft 152 kts 276°
2026-05-06 01:56 18.40573 -69.06293 1805 ft 153 kts 276°
2026-05-06 01:56 18.40734 -69.07407 1806 ft 155 kts 277°
2026-05-06 01:57 18.40903 -69.08519 1806 ft 156 kts 277°
2026-05-06 01:57 18.41081 -69.09653 1806 ft 157 kts 278°
2026-05-06 01:57 18.41266 -69.10786 1793 ft 156 kts 278°
2026-05-06 01:57 18.41458 -69.11908 1779 ft 154 kts 279°
2026-05-06 01:58 18.41661 -69.13011 1781 ft 153 kts 281°
2026-05-06 01:58 18.41877 -69.14104 1787 ft 152 kts 281°
2026-05-06 01:58 18.42110 -69.15194 1797 ft 153 kts 282°
2026-05-06 01:58 18.42358 -69.16288 1800 ft 154 kts 282°
2026-05-06 01:59 18.42612 -69.17381 1785 ft 152 kts 282°
2026-05-06 01:59 18.42871 -69.18455 1782 ft 151 kts 283°
2026-05-06 01:59 18.43091 -69.19539 1788 ft 152 kts 277°
2026-05-06 01:59 18.43214 -69.20627 1794 ft 152 kts 273°
2026-05-06 02:00 18.43260 -69.21736 1797 ft 151 kts 269°
2026-05-06 02:00 18.43269 -69.22845 1797 ft 151 kts 268°
2026-05-06 02:00 18.43273 -69.23955 1796 ft 152 kts 268°
2026-05-06 02:00 18.43281 -69.25067 1795 ft 152 kts 268°
2026-05-06 02:01 18.43290 -69.26183 1795 ft 152 kts 268°
2026-05-06 02:01 18.43299 -69.27299 1795 ft 152 kts 268°
2026-05-06 02:01 18.43310 -69.28418 1795 ft 153 kts 268°
2026-05-06 02:01 18.43322 -69.29537 1795 ft 153 kts 269°
2026-05-06 02:02 18.43336 -69.30656 1795 ft 153 kts 269°
2026-05-06 02:02 18.43350 -69.31783 1795 ft 153 kts 269°
2026-05-06 02:02 18.43366 -69.32907 1795 ft 154 kts 269°
2026-05-06 02:02 18.43383 -69.34016 1795 ft 154 kts 269°
2026-05-06 02:03 18.43400 -69.35145 1795 ft 154 kts 269°
2026-05-06 02:03 18.43419 -69.36271 1796 ft 154 kts 269°
2026-05-06 02:03 18.43439 -69.37403 1796 ft 154 kts 269°
2026-05-06 02:03 18.43465 -69.38526 1793 ft 153 kts 269°
2026-05-06 02:04 18.43504 -69.39647 1788 ft 153 kts 269°
2026-05-06 02:04 18.43548 -69.40766 1784 ft 152 kts 269°
2026-05-06 02:04 18.43594 -69.41868 1783 ft 152 kts 269°
2026-05-06 02:04 18.43643 -69.42989 1782 ft 152 kts 269°
2026-05-06 02:05 18.43693 -69.44102 1782 ft 152 kts 269°
2026-05-06 02:05 18.43745 -69.45220 1781 ft 152 kts 269°
2026-05-06 02:05 18.43799 -69.46333 1781 ft 152 kts 270°
2026-05-06 02:05 18.43854 -69.47453 1770 ft 151 kts 269°
2026-05-06 02:06 18.43910 -69.48533 1760 ft 148 kts 270°
2026-05-06 02:06 18.43978 -69.49596 1770 ft 143 kts 271°
2026-05-06 02:06 18.44059 -69.50627 1791 ft 139 kts 272°
2026-05-06 02:06 18.44145 -69.51640 1798 ft 138 kts 272°
2026-05-06 02:07 18.44229 -69.52657 1795 ft 140 kts 272°
2026-05-06 02:07 18.44305 -69.53700 1784 ft 145 kts 271°
2026-05-06 02:07 18.44361 -69.54762 1773 ft 148 kts 269°
2026-05-06 02:07 18.44408 -69.55848 1773 ft 148 kts 269°
2026-05-06 02:08 18.44487 -69.56942 1776 ft 148 kts 275°
2026-05-06 02:08 18.44670 -69.58003 1780 ft 150 kts 278°
2026-05-06 02:08 18.44877 -69.59078 1782 ft 150 kts 277°
2026-05-06 02:08 18.45047 -69.60168 1782 ft 150 kts 276°
2026-05-06 02:09 18.45204 -69.61257 1779 ft 149 kts 275°
2026-05-06 02:09 18.45360 -69.62338 1779 ft 149 kts 275°
2026-05-06 02:09 18.45513 -69.63424 1778 ft 149 kts 273°
2026-05-06 02:09 18.45565 -69.64500 1779 ft 148 kts 267°
2026-05-06 02:10 18.45577 -69.65585 1780 ft 148 kts 267°
2026-05-06 02:10 18.45595 -69.66671 1780 ft 148 kts 268°
2026-05-06 02:10 18.45615 -69.67754 1780 ft 148 kts 268°
2026-05-06 02:10 18.45636 -69.68852 1780 ft 149 kts 268°
2026-05-06 02:11 18.45657 -69.69929 1779 ft 149 kts 268°
2026-05-06 02:11 18.45679 -69.71016 1779 ft 149 kts 268°
2026-05-06 02:11 18.45702 -69.72110 1779 ft 149 kts 268°
2026-05-06 02:11 18.45725 -69.73201 1779 ft 149 kts 268°
2026-05-06 02:12 18.45768 -69.74292 1779 ft 149 kts 270°
2026-05-06 02:12 18.45850 -69.75367 1780 ft 149 kts 271°
2026-05-06 02:12 18.45943 -69.76460 1780 ft 150 kts 272°
2026-05-06 02:12 18.46038 -69.77553 1779 ft 150 kts 272°
2026-05-06 02:13 18.46133 -69.78641 1779 ft 150 kts 272°
2026-05-06 02:13 18.46229 -69.79739 1779 ft 150 kts 272°
2026-05-06 02:13 18.46325 -69.80826 1779 ft 150 kts 272°
2026-05-06 02:13 18.46420 -69.81923 1796 ft 144 kts 268°
2026-05-06 02:14 18.46520 -69.82943 1713 ft 143 kts 270°
2026-05-06 02:14 18.46588 -69.83957 1451 ft 133 kts 264°
2026-05-06 02:14 18.46573 -69.84918 1248 ft 134 kts 264°
2026-05-06 02:14 18.46559 -69.85925 956 ft 138 kts 265°
2026-05-06 02:15 18.46472 -69.86923 757 ft 136 kts 253°
2026-05-06 02:15 18.46302 -69.87552 674 ft 132 kts 247°
2026-05-06 02:15 18.45920 -69.88784 642 ft 134 kts 250°
2026-05-06 02:15 18.45633 -69.89717 562 ft 136 kts 248°
2026-05-06 02:16 18.45313 -69.90656 412 ft 136 kts 245°
2026-05-06 02:16 18.44975 -69.91551 342 ft 121 kts 245°
2026-05-06 02:16 18.44814 -69.92048 296 ft 85 kts 279°
2026-05-06 02:16 18.45127 -69.92206 153 ft 25 kts 44°
2026-05-06 02:17 18.45240 -69.92159 118 ft 27 kts 45°
2026-05-06 02:17 18.45362 -69.92088 55 ft 2 kts 67°
2026-05-06 02:17 18.45365 -69.92084 51 ft 0 kts 82°